Location: Killam
(52.7910°N, 111.8608°W)
Time: 09:25:40
(UTC+00:00)

NOAA 15 - Pass Details

Date: 16 December 2025
Orbit: 794 x 809 km, 98.5° (Epoch: 25 January)

Event Time Altitude Azimuth Distance (km) Brightness Sun altitude
Rises 03:07:04 0° 207° (SSW) 3,315 8.0 -34.0°
Reaches altitude 10° 03:10:01 10° 224° (SW) 2,388 7.4 -34.4°
Maximum altitude 03:13:51 20° 271° (W) 1,782 7.0 -35.0°
Drops below altitude 10° 03:17:43 10° 318° (NW) 2,394 7.5 -35.6°
Sets 03:20:42 0° 335° (NNW) 3,327 8.2 -36.0°
